{"data":{"norad_id":66545,"intl_designator":"2025-266A","name":"SHIJIAN-30A (SJ-30A)","alt_names":[],"object_type":"PAYLOAD","status":"ACTIVE","operator":null,"country":"PRC","launch_date":"2025-11-19","launch_site_code":"JSC","launch_vehicle":null,"mission":null,"orbit_class":"UNKNOWN","rcs_meters":null,"size_class":null,"mass_kg":null,"dimensions":null,"purposes":[],"wikipedia_slug":null,"has_3d_model":false,"image_url":null,"decayed_at":null,"tle_current":{"epoch":"2026-05-24T21:27:18.039456Z","epoch_age_seconds":98362,"freshness":"FRESH","line1":"1 66545U 25266A   26144.89395879  .00006943  00000+0  37855-3 0  9994","line2":"2 66545  51.7990 288.5076 0008989 174.1981 185.9101 15.15411105 28324","mean_motion":15.15411105,"eccentricity":0.0008989,"inclination_deg":51.799,"raan_deg":288.5076,"arg_perigee_deg":174.1981,"mean_anomaly_deg":185.9101,"bstar":0.00037855,"rev_number":2832,"period_min":95.023719652629,"perigee_km":513.53026926051,"apogee_km":525.9312559241,"semimajor_km":6897.8677625923,"source":"CELESTRAK","updated_at":"2026-05-25T13:38:06.303514Z"}}}